Home   Weather   Los Angeles   Past weeks
Flag for USA

Past Weather in Los Angeles, California, USA — Yesterday and Last 2 Weeks

Now
50 °F

Clear.


Feels Like: 50 °F
Forecast: 55 / 44 °F
Wind: No wind

Location: Los Angeles / USC Campus Downtown

Current Time: Feb 17, 2019 at 12:50:58 am

Latest Report: Feb 16, 2019 at 11:47 pm


Visibility: 10 mi

Pressure: 30.08 "Hg

Humidity: 66%

Dew Point: 39 °F

Location of Los AngelesLocation

Past Weather in Los Angeles — Graph

°F

Los Angeles Temperature Yesterday

Maximum temperature yesterday: 60 °F (at 12:47 pm)
Minimum temperature yesterday: 45 °F (at 3:47 am)
Average temperature yesterday: 54 °F

High & Low Weather Summary for the Past Weeks

 TemperatureHumidityPressure
High69 °F (Feb 12, 12:47 pm)97% (Feb 13, 11:57 pm)30.28 "Hg (Feb 13, 11:57 pm)
Low42 °F (Feb 11, 5:47 am)14% (Feb 12, 2:47 pm)29.74 "Hg (Feb 2, 1:50 pm)
Average54 °F71%29.98 "Hg
* Reported Feb 1 10:47 pm — Feb 16 10:47 pm, Los Angeles. Weather by CustomWeather, © 2019

Note: Actual official high and low records may vary slightly from our data, if they occured in-between our weather recording intervals... More about our weather records

Advertising

Los Angeles Weather History for the Previous 24 Hours

Scroll right to see more
 ConditionsComfort  
Time TempWeatherWind HumidityBarometerVisibility
10:47 pm
Sat, Feb 16
50 °FClear.No wind68%30.08 "Hg10 mi
9:47 pm52 °FClear.3 mph61%30.08 "Hg10 mi
8:47 pm53 °FClear.No wind64%30.08 "Hg10 mi
7:47 pm54 °FClear.No wind69%30.07 "Hg10 mi
6:47 pm56 °FClear.No wind67%30.07 "Hg10 mi
5:47 pm57 °FOvercast.6 mph62%30.06 "Hg10 mi
4:47 pm58 °FPassing clouds.5 mph54%30.06 "Hg10 mi
3:47 pm59 °FSunny.8 mph51%30.06 "Hg10 mi
2:47 pm60 °FSunny.9 mph44%30.05 "Hg10 mi
1:47 pm60 °FSunny.5 mph44%30.07 "Hg10 mi
12:47 pm60 °FSunny.5 mph39%30.10 "Hg10 mi
11:47 am59 °FSunny.N/A39%30.12 "Hg10 mi
10:47 am59 °FSunny.5 mph39%30.15 "Hg10 mi
9:47 am57 °FSunny.5 mph41%30.15 "Hg10 mi
8:47 am54 °FSunny.3 mph47%30.17 "Hg10 mi
7:47 am49 °FSunny.No wind61%30.16 "Hg10 mi
6:47 am48 °FSunny.No wind56%30.14 "Hg10 mi
5:47 am47 °FClear.3 mph64%30.13 "Hg10 mi
3:47 am45 °FClear.No wind93%30.09 "Hg10 mi
2:47 am47 °FClear.No wind90%30.08 "Hg10 mi
1:47 am48 °FClear.No wind89%30.08 "Hg10 mi
12:47 am49 °FClear.No wind90%30.09 "Hg10 mi
Weather by CustomWeather, © 2019

See weather overview